Terminal Aerodrome Forecast
Issued by NWS Spokane, WA

Home | Current Version | Previous Version | Text Only | Print | Product List | Glossary On
Versions: 1 2 3 4 5 6 7 8 9 10 11 12 13 14 15 16 17 18 19 20 21 22 23 24 25 26
395
FTUS46 KOTX 191128
TAFEAT
TAF
KEAT 191128Z 1912/2012 28004KT P6SM SCT090 BKN200
     FM192100 29016G24KT P6SM SCT080 BKN100
     FM200200 31009KT P6SM BKN070 BKN100=

USA.gov is the U.S. government's official web portal to all federal, state and local government web resources and services.